Location: Bacea
(45.9500°N, 22.6667°E)
Time: 00:28:22
(UTC+00:00)

Landsat 5 - Pass Details

Date: 16 October 2021
Orbit: 529 x 652 km, 98.2° (Epoch: 26 November)

Event Time Altitude Azimuth Distance (km) Brightness Sun altitude
Rises 16:11:03 0° 20° (NNE) 2,871 6.7 -5.9°
Reaches altitude 10° 16:13:19 10° 28° (NNE) 1,982 5.8 -6.3°
Maximum altitude 16:17:24 40° 99° (E) 923 4.0 -7.0°
Drops below altitude 10° 16:21:34 10° 169° (S) 2,025 6.2 -7.7°
Sets 16:23:54 0° 177° (S) 2,941 7.1 -8.1°
